Terminal Aerodrome Forecast
Issued by NWS

Home | Current Version | Previous Version | Text Only | Print | Product List | Glossary On
Versions: 1 2 3 4 5 6 7 8 9 10 11 12 13 14 15 16 17
000
FTUS41 KGYX 031120
TAFHIE
TAF
KHIE 031120Z 0312/0412 VRB03KT P6SM SCT050 SCT100
     FM031800 28006KT P6SM BKN050
      TEMPO 0318/0321 -SHRA
     FM032300 00000KT P6SM SCT200=

USA.gov is the U.S. government's official web portal to all federal, state and local government web resources and services.